Forrest,

5:59 AM AWST on July 25, 2017 (GMT +0800)
Forrest

Weather History for YFRT - January, 2012

Change the Weather History Date:

Thursday, January 26, 2012

  Actual Average Record
Temperature  
Mean Temperature 80 °F -  
Max Temperature 97 °F - - ()
Min Temperature 64 °F - - ()
Cooling Degree Days 16    
Growing Degree Days 30 (Base 50)    
Moisture  
Dew Point 59 °F    
Average Humidity 58    
Maximum Humidity 94    
Minimum Humidity 14    
Precipitation  
Precipitation 0.00 in - - ()
Sea Level Pressure  
Sea Level Pressure 29.90 in    
Wind  
Wind Speed 15 mph ()    
Max Wind Speed 22 mph    
Max Gust Speed 32 mph    
T = Trace of Precipitation, MM = Missing Value Source: Averaged Metar Reports

Daily Weather History Graph

Daily Weather History Graph

Search for Another Location

Airport or City:

Trip Planner

Search our weather history database for the weather conditions in past years. The results will help you decide how hot, cold, wet, or windy it might be!

Date:

Astronomy

Jan. 26, 2012 Rise Set
Actual Time 4:48 AM AWST 6:31 PM AWST
Civil Twilight 4:21 AM AWST 6:57 PM AWST
Nautical Twilight 3:50 AM AWST 7:29 PM AWST
Astronomical Twilight 3:16 AM AWST 8:02 PM AWST
Moon 7:29 AM AWST (1/26) 8:03 PM AWST (1/26)
Length of Visible Light 14h 35m
Length of Day
13h 42m
Waxing Crescent, 9% of the Moon is Illuminated
Jan 26
Waxing Crescent
Jan 31
First Quarter
Feb 8
Full
Feb 15
Last Quarter
Feb 22
New

Hourly Weather History & Observations

Time (AWST) Temp. Heat Index Dew Point Humidity Pressure Visibility Wind Dir Wind Speed Gust Speed Precip Events Conditions
12:00 AM 66 °F - 62 °F 84% 29.93 in - SE 19.6 mph - -  
12:00 AM 66.2 °F - 62.6 °F 88% 29.95 in - SE 19.6 mph - N/A   Unknown
1:00 AM 66.2 °F - 62.6 °F 88% 29.92 in - SE 16.1 mph - N/A   Unknown
2:00 AM 66 °F - 63 °F 86% 29.94 in - ESE 17.3 mph - -  
2:00 AM 66.2 °F - 62.6 °F 88% 29.95 in - ESE 17.3 mph - N/A   Unknown
3:00 AM 66 °F - 62 °F 84% 29.94 in - ESE 17.3 mph - -  
3:00 AM 66.2 °F - 62.6 °F 88% 29.95 in - ESE 17.3 mph - N/A   Unknown
4:00 AM 66.2 °F - 62.6 °F 88% 29.95 in - ESE 11.5 mph - N/A   Unknown
5:00 AM 64 °F - 61 °F 88% 29.94 in - SE 10.4 mph - -  
5:00 AM 64.4 °F - 60.8 °F 88% 29.95 in - SE 10.4 mph - N/A   Unknown
6:00 AM 67 °F - 63 °F 81% 29.97 in - SE 15.0 mph - -  
6:00 AM 66.2 °F - 62.6 °F 88% 29.98 in - SE 15.0 mph - N/A   Unknown
7:00 AM 69.8 °F - 62.6 °F 78% 29.98 in - SE 15.0 mph - N/A   Unknown
8:00 AM 75 °F - 61 °F 53% 29.96 in - SE 15.0 mph - -  
8:00 AM 75.2 °F - 60.8 °F 61% 29.98 in - SE 15.0 mph - N/A   Unknown
9:00 AM 80 °F - 59 °F 39% 29.95 in - ESE 15.0 mph - -  
9:00 AM 80.6 °F 81.1 °F 59.0 °F 48% 29.95 in - ESE 15.0 mph - N/A   Unknown
10:00 AM 84.2 °F 83.5 °F 57.2 °F 40% 29.95 in - ESE 15.0 mph 26.5 mph N/A   Unknown
11:00 AM 88 °F - 56 °F 24% 29.90 in - SSE 13.8 mph - -  
11:00 AM 87.8 °F 86.5 °F 57.2 °F 35% 29.92 in - SSE 13.8 mph - N/A   Unknown
12:00 PM 94 °F - 56 °F 18% 29.88 in - SE 16.1 mph - -  
12:00 PM 93.2 °F 91.3 °F 55.4 °F 28% 29.89 in - SE 16.1 mph - N/A   Unknown
1:00 PM 95.0 °F 92.7 °F 53.6 °F 25% 29.86 in - ESE 16.1 mph - N/A   Unknown
2:00 PM 96 °F - 51 °F 14% 29.83 in - ESE 13.8 mph - -  
2:00 PM 96.8 °F - 51.8 °F 22% 29.83 in - ESE 13.8 mph - N/A   Unknown
3:00 PM 94 °F - 55 °F 18% 29.81 in - SE 19.6 mph - -  
3:00 PM 95.0 °F 93.0 °F 55.4 °F 26% 29.83 in - SE 19.6 mph - N/A   Unknown
3:18 PM 93.2 °F 91.3 °F 55.4 °F 28% 29.83 in - SE 20.7 mph 32.2 mph N/A   Unknown
4:00 PM 91.4 °F 89.9 °F 57.2 °F 31% 29.83 in - SE 21.9 mph - N/A   Unknown
5:00 PM 88 °F - 56 °F 23% 29.83 in - SE 20.7 mph - -  
5:00 PM 87.8 °F 86.1 °F 55.4 °F 33% 29.83 in - SE 20.7 mph - N/A   Unknown
6:00 PM 82 °F - 58 °F 33% 29.86 in - SSE 20.7 mph - -  
6:00 PM 82.4 °F 82.0 °F 57.2 °F 42% 29.86 in - SSE 20.7 mph - N/A   Unknown
7:00 PM 75.2 °F - 59.0 °F 57% 29.89 in - SE 19.6 mph - N/A   Unknown
8:00 PM 70 °F - 61 °F 66% 29.87 in - SE 17.3 mph - -  
8:00 PM 69.8 °F - 60.8 °F 73% 29.89 in - SE 17.3 mph - N/A   Unknown
9:00 PM 67 °F - 62 °F 79% 29.87 in - SE 18.4 mph - -  
9:00 PM 68.0 °F - 62.6 °F 83% 29.89 in - SE 18.4 mph - N/A   Unknown
10:00 PM 66.2 °F - 62.6 °F 88% 29.89 in - SE 17.3 mph - N/A   Unknown
11:00 PM 65 °F - 63 °F 89% 29.88 in - SE 17.3 mph - -  
11:00 PM 64.4 °F - 62.6 °F 94% 29.89 in - SE 17.3 mph - N/A   Unknown